sat.trackr.live / text

‹ back to catalog

SHIYAN-7 (SY-7)

NORAD 39208 · 2013-037A

PAYLOAD ACTIVE UNKNOWN

§ Identity

Operator
Country
PRC
Launch date
2013-07-19
Launch site
TAISC
Launch vehicle
Mass (kg)
RCS (m²)
1.86

External: N2YO · Heavens-Above · Gunter

§ Orbital elements

Epoch: 2026-09-19T18:36:49.187520Z

Period
97.80 min
Inclination
98.0940°
Eccentricity
0.0007360
Mean motion
14.72373555 rev/d
Perigee alt
648.3 km
Apogee alt
658.7 km
Semi-major
7,031.6 km
B*
5.2849e-5
RAAN
265.5868°
Arg perigee
195.2265°
Mean anomaly
164.8721°
Rev number
70,612

§ Raw data

SHIYAN-7 (SY-7)1 39208U 13037A   26262.77556930  .00000284  00000+0  52849-4 0  99912 39208  98.0940 265.5868 0007360 195.2265 164.8721 14.72373555706127

JSON: /api/v1/satellites/39208 · /tle

For live sub-satellite position, see the globe view (requires WebGL).

§ Visibility from observer

Set your observer location to see the next 7 days of passes ≥ 10°. The values pass through the URL so the page stays shareable.

No JS? Fill the form by hand. The geolocation button needs JavaScript.